Location: Duncanville
(32.6518°N, 96.9083°W)
Time: 11:23:08
(UTC+00:00)

Cosmos 2219 - Pass Details

Date: 11 February 2026
Orbit: 832 x 859 km, 71.1° (Epoch: 8 March)

Event Time Altitude Azimuth Distance (km) Brightness Sun altitude
Rises 12:16:56 0° 347° (NNW) 3,428 6.1 -12.6°
Reaches altitude 10° 12:19:33 10° 355° (N) 2,485 5.5 -12.1°
Maximum altitude 12:24:57 42° 65° (ENE) 1,192 4.5 -11.0°
Drops below altitude 10° 12:30:16 10° 136° (SE) 2,456 6.5 -9.9°
Sets 12:32:49 0° 143° (SE) 3,383 7.1 -9.3°
